Temperature
24 23 23 23 21 19 20 21 22 21 21 21 21 20 19 19 19 18 19 18 18 18 18 18 18 18 18 18 18 18 18 18 18 18 18 18 18 17 17 17 18 18 17 17 17 17 17 17 17
24 23 23 22 19 19 20 21 21 21 21 21 21 20 19 18 19 19 19 18 18 18 18 18 18 18 18 18 18 18 18 18 18 18 18 18 18 17 17 17 17 18 17 17 17 17 17 17 17
24 23 23 20 20 20 21 22 21 22 22 22 21 20 19 19 19 19 19 19 18 18 18 18 18 18 18 18 18 18 18 18 18 18 18 18 17 17 17 17 17 17 17 17 17 17 17 17 17
24 23 23 20 21 22 22 22 22 22 22 21 21 20 19 19 19 19 19 19 19 18 18 18 18 18 18 18 18 18 18 18 18 18 18 18 18 18 17 17 17 17 17 17 17 17 17 17 17
24 24 20 20 22 23 22 23 23 22 21 21 20 19 19 19 19 19 19 19 19 18 18 18 18 18 18 18 18 18 18 18 18 18 18 18 18 18 18 17 17 17 17 17 17 17 17 17 17
24 21 20 21 22 23 23 23 22 21 21 21 20 19 19 19 19 19 19 19 18 18 18 18 18 18 18 18 18 18 18 18 18 18 18 17 17 17 17 17 17 17 17 17 17 17 17 17 17
23 20 21 22 22 23 23 23 22 21 21 21 20 19 19 19 19 19 19 19 18 18 18 18 18 18 18 18 18 18 18 18 18 18 18 17 17 17 17 17 17 17 17 17 17 17 17 17 17
25 21 22 22 22 23 23 23 22 22 22 21 21 19 19 19 19 19 19 19 18 18 18 18 18 18 18 18 18 18 18 18 18 18 18 17 17 17 17 17 17 17 17 17 17 17 17 17 17
25 21 21 22 22 23 23 23 23 22 22 21 21 21 20 20 19 19 19 19 18 19 18 18 18 18 18 18 18 18 18 18 18 17 17 17 17 17 17 17 17 17 17 17 17 17 17 17 17
24 21 23 23 23 22 23 23 23 22 21 21 21 21 20 20 19 19 19 19 19 19 19 18 18 18 18 18 18 18 18 18 18 18 17 17 17 17 17 17 17 17 17 17 17 17 17 17 17
24 23 24 24 24 24 23 23 23 22 21 21 21 20 20 20 19 19 19 19 19 19 19 18 18 18 18 18 18 18 18 18 18 18 17 17 17 17 17 17 17 17 17 17 17 17 17 17 17
25 25 25 25 25 24 24 23 23 22 23 23 22 21 20 20 20 19 19 19 19 19 19 19 18 18 18 18 18 18 18 18 17 17 17 17 17 17 17 17 17 17 17 17 17 17 17 17 17
25 25 25 25 25 25 24 23 23 22 23 22 21 21 20 20 20 20 19 19 19 19 19 18 18 18 18 18 18 18 18 18 17 17 17 17 17 17 17 17 17 17 17 17 17 17 17 17 17
25 25 25 25 25 25 23 23 23 22 22 22 21 20 20 20 20 20 19 19 19 19 19 18 18 18 18 18 18 18 18 18 18 18 18 17 17 17 17 17 17 17 17 17 17 17 17 17 17
26 24 24 24 24 24 24 23 22 22 22 21 21 20 20 20 20 20 20 19 19 19 19 18 18 18 18 18 18 17 17 17 17 17 17 17 17 17 17 17 17 17 17 17 17 17 17 17 17
25 23 23 24 24 24 24 22 22 22 22 21 21 20 20 20 20 20 20 20 19 19 19 18 18 18 18 18 18 17 17 17 17 17 17 17 17 17 17 17 17 17 17 17 17 17 17 17 17
23 23 24 24 24 23 23 23 22 22 22 21 21 20 20 20 20 20 20 20 19 19 19 18 18 18 18 18 17 17 17 17 17 17 17 17 17 17 17 17 17 17 17 17 17 17 17 17 17
24 24 24 24 24 23 23 22 22 22 22 21 21 21 21 21 21 20 20 20 19 19 19 19 18 18 18 18 17 17 17 17 17 17 17 17 17 17 17 17 17 17 17 17 17 17 17 17 17
24 24 24 24 24 23 23 22 22 22 21 21 21 21 21 21 21 20 20 20 20 19 19 19 18 18 18 18 18 18 18 18 17 17 17 17 17 17 17 17 17 17 17 17 17 17 17 17 17
25 24 24 24 24 24 23 22 22 22 21 22 21 21 21 21 21 21 20 20 20 20 19 19 19 18 18 18 18 18 18 17 17 17 17 17 17 17 17 17 17 17 17 17 17 17 17 17 17
25 24 24 24 24 23 23 22 22 22 22 22 22 22 22 22 22 21 21 21 20 20 20 19 19 19 18 18 18 18 18 17 17 17 17 17 17 17 17 17 17 17 17 17 17 17 17 17 17
25 25 25 24 23 21 23 21 21 21 20 21 21 21 22 22 22 22 21 21 21 20 20 20 19 19 19 18 18 18 18 18 18 18 17 17 17 17 17 17 17 17 17 17 17 17 17 17 17
25 25 24 23 22 21 21 21 21 20 20 20 21 21 22 22 22 22 22 22 21 21 21 20 20 19 19 19 18 18 18 18 18 18 17 17 17 17 17 17 17 17 17 17 17 17 17 17 17
25 23 22 20 20 21 21 21 21 20 21 21 21 22 22 22 22 22 22 22 21 21 21 21 20 20 19 19 19 19 18 18 18 18 18 18 18 17 17 17 17 17 17 17 17 17 17 17 17
24 22 21 22 20 21 20 21 20 21 21 21 22 22 23 23 23 23 22 22 22 22 21 21 21 20 20 19 19 19 19 18 18 18 18 18 18 18 18 17 17 17 17 17 17 17 17 16 16
23 22 21 22 21 20 20 21 21 22 22 22 23 23 23 23 23 23 23 23 22 22 22 22 21 21 20 20 19 19 19 19 18 18 18 18 18 18 18 17 17 17 17 17 17 17 17 16 16
23 21 21 19 20 20 20 20 21 21 21 21 22 22 22 23 23 23 24 23 23 23 22 22 22 21 21 20 20 20 19 19 19 18 18 18 18 18 18 18 17 17 17 17 16 16 16 16 16
23 20 19 19 20 21 22 21 21 22 21 20 20 21 22 23 23 23 24 24 23 23 23 22 22 21 21 21 20 20 20 19 19 18 18 18 18 18 18 18 17 17 17 17 16 16 16 16 16
22 21 18 17 19 20 21 21 21 21 21 20 20 22 22 23 23 23 24 23 23 23 23 22 22 22 21 21 20 20 20 19 19 19 19 18 18 18 18 18 17 17 17 17 16 16 16 16 16
23 21 19 21 20 18 19 21 22 20 20 20 21 22 22 23 23 23 23 23 23 23 23 23 22 22 22 21 21 20 20 20 19 19 19 19 18 18 18 18 17 17 17 17 16 16 16 16 16
Wind_Speed
8 6 2 2 5 6 4 3 2 3 4 4 6 7 6 4 2 3 0 4 4 3 2 4 5 7 7 8 9 9 10 12 12 12 13 13 14 14 15 15 16 17 17 17 18 18 18 18 18
5 4 1 4 6 4 3 2 4 4 5 5 6 6 6 5 3 4 2 3 4 3 2 3 5 6 7 7 8 9 10 11 11 12 13 13 14 14 15 15 16 16 17 17 17 17 17 17 17
5 2 4 5 4 3 2 1 5 5 4 3 4 5 4 3 3 3 3 5 5 3 2 3 5 6 6 7 8 8 9 11 12 12 12 13 14 14 15 15 15 16 16 16 16 15 15 15 15
3 3 5 6 5 1 4 4 6 6 5 6 5 5 4 3 4 4 7 7 5 2 2 3 5 6 6 7 8 8 9 10 11 12 12 13 13 13 14 15 15 15 15 15 15 15 14 14 14
3 4 6 5 4 2 3 4 3 5 4 5 5 5 4 4 7 8 7 6 5 3 2 3 5 6 6 7 8 8 9 10 11 12 12 12 13 13 13 13 14 14 14 13 13 13 13 12 12
4 5 5 3 3 3 3 3 4 6 5 5 5 4 3 3 6 7 6 5 4 3 2 3 5 5 6 7 8 8 9 10 10 11 12 12 11 12 12 13 13 13 12 12 12 11 11 10 10
4 5 4 3 3 2 3 2 4 5 5 4 4 4 2 2 4 6 6 5 3 3 3 2 3 4 5 6 7 8 8 9 10 10 10 11 11 11 11 11 12 12 12 11 10 10 9 9 9
4 5 4 2 4 2 4 3 4 5 4 5 4 6 4 4 6 7 6 4 3 2 2 2 3 3 3 4 6 7 8 8 9 9 9 9 9 9 10 9 10 10 10 10 9 8 8 8 8
4 5 2 5 6 4 5 4 3 3 6 3 2 4 5 10 10 8 5 3 2 2 1 1 1 2 2 2 4 5 6 6 6 6 7 7 6 6 7 8 9 9 9 8 8 7 7 7 7
4 4 6 5 6 7 6 6 6 5 4 3 5 7 10 11 10 8 6 5 3 3 2 1 1 1 1 2 3 2 3 4 4 4 5 5 5 4 4 6 7 7 7 7 7 6 6 6 5
4 5 3 3 6 8 7 5 4 8 3 5 8 11 12 10 8 7 6 5 5 3 2 2 2 1 1 1 2 2 2 3 3 3 4 4 4 3 3 3 4 5 5 5 5 5 4 4 4
4 2 4 4 6 7 7 6 5 4 5 7 11 13 11 10 8 7 7 6 4 3 3 3 3 2 2 2 1 1 1 1 1 1 2 3 2 2 2 2 3 3 3 3 3 3 3 3 3
4 3 4 6 8 7 7 5 5 1 5 10 11 11 11 9 7 5 5 4 4 4 4 3 3 3 2 2 1 1 1 1 1 1 2 3 2 1 2 1 2 2 2 2 2 2 2 1 1
4 6 6 6 6 4 6 4 4 3 9 11 11 9 8 8 7 5 4 4 4 4 4 3 3 3 2 2 1 1 1 1 1 1 2 3 3 3 2 1 1 1 2 2 2 2 1 1 1
6 7 7 3 4 3 7 3 2 6 10 10 9 8 7 6 6 7 7 6 6 5 4 4 4 3 3 2 2 1 2 2 1 1 2 3 4 4 3 2 1 1 2 2 2 2 2 1 1
5 6 2 2 3 4 7 3 4 8 11 9 8 8 7 5 6 6 6 5 5 4 4 4 4 4 3 2 2 1 2 2 1 1 1 3 4 4 4 2 2 2 3 2 2 2 1 1 1
4 3 3 2 4 5 5 4 5 9 10 9 8 8 7 6 5 5 6 6 6 5 5 4 3 4 4 3 2 2 2 1 0 1 1 2 3 4 4 2 2 3 3 2 2 2 2 2 2
5 4 3 4 4 5 4 3 4 9 9 9 9 8 7 8 8 6 6 6 5 5 5 4 4 4 4 3 2 2 2 1 1 0 1 2 3 4 4 3 3 3 2 2 2 2 2 2 2
6 5 3 3 3 5 4 3 5 9 9 9 8 9 9 9 6 5 5 6 5 5 5 4 4 4 3 2 2 1 0 0 1 0 0 1 3 4 4 2 3 3 2 2 3 3 3 2 2
5 4 2 0 2 4 3 2 3 7 10 10 11 11 10 8 6 6 6 6 6 5 5 5 4 4 4 3 2 2 2 1 0 0 1 0 2 3 3 3 2 3 2 2 3 3 2 1 2
2 5 5 4 3 4 3 3 2 3 4 5 7 8 9 11 10 8 7 7 6 6 7 6 5 4 4 3 3 2 2 2 1 1 1 0 1 2 3 3 3 3 3 3 3 3 4 3 1
2 4 5 6 6 1 2 2 5 3 3 6 8 9 11 10 9 9 8 8 8 8 6 6 5 4 4 4 4 4 3 2 2 1 1 1 1 2 3 3 3 3 2 3 3 3 3 4 2
3 3 5 5 6 3 2 2 7 1 4 8 9 10 11 11 11 11 10 10 8 7 7 6 5 4 4 4 5 4 3 2 1 1 1 1 0 1 2 3 3 3 2 3 3 2 3 3 3
7 8 8 7 5 1 2 3 6 4 7 6 9 10 9 10 11 10 8 7 7 6 6 6 5 4 4 5 5 5 5 4 3 2 1 1 0 0 0 2 2 2 2 3 3 3 3 3 3
6 7 4 4 4 4 1 2 8 7 6 7 8 10 9 9 10 10 10 9 8 8 8 7 6 5 5 5 5 5 6 5 5 3 3 2 1 1 1 1 2 2 2 3 3 3 3 3 3
5 9 8 6 5 4 1 4 7 5 4 3 4 6 7 8 9 11 12 11 10 10 9 8 7 6 5 6 5 4 5 4 3 3 3 3 2 2 2 2 2 2 2 2 3 2 3 2 3
7 4 7 7 3 0 4 6 7 3 3 1 2 4 6 8 9 10 10 10 10 10 10 10 9 7 6 6 6 5 4 4 4 3 3 2 2 2 2 2 2 2 2 2 2 2 2 2 2
6 9 7 6 6 3 4 4 5 6 6 3 3 5 6 6 8 8 8 9 9 9 8 8 8 8 7 6 6 5 5 5 5 4 3 3 2 2 2 2 2 2 1 2 2 1 1 2 1
5 5 6 6 6 7 4 7 6 8 7 7 7 6 6 6 7 7 7 8 8 7 7 8 7 6 6 6 6 5 5 5 5 4 3 3 2 3 3 3 2 2 2 2 2 2 1 2 1
5 8 8 6 5 5 5 7 5 5 6 6 5 4 4 5 5 5 5 5 6 7 7 7 8 7 7 6 6 6 5 5 5 4 4 4 3 3 3 3 3 2 2 2 3 2 2 2 1
Wind_Direction
156 151 144 83 55 51 38 6 49 56 56 52 71 78 86 68 82 135 322 118 110 102 123 126 108 95 90 87 86 85 90 95 98 100 100 99 101 104 109 110 111 110 108 109 110 113 117 117 119
146 155 94 58 74 62 11 3 67 75 129 123 76 69 71 60 60 106 108 124 106 107 116 125 115 101 93 91 91 91 94 100 101 101 101 101 102 105 112 114 113 110 107 110 115 114 115 116 118
156 149 76 66 80 127 137 118 113 109 110 81 70 58 69 89 115 139 155 129 103 104 118 132 117 105 98 98 96 96 97 102 105 106 106 106 107 106 110 114 115 114 113 113 114 114 115 117 118
130 51 53 66 66 139 154 156 133 119 67 54 78 63 58 75 136 137 129 124 115 105 124 139 120 109 103 100 104 104 105 106 108 110 109 110 109 107 110 114 114 115 117 118 118 118 120 120 121
74 74 58 51 35 34 111 136 112 97 75 63 77 79 45 25 98 116 122 123 127 122 128 135 119 109 105 107 108 107 107 110 110 110 111 111 113 114 114 115 113 113 115 116 118 120 122 122 125
62 69 78 72 47 51 90 105 92 86 93 90 84 86 48 76 111 128 127 123 127 119 105 116 122 115 110 112 111 109 111 112 111 109 110 109 109 111 115 118 116 115 116 117 118 117 121 120 124
100 89 117 129 96 91 144 109 108 113 110 115 114 94 82 120 133 128 115 106 102 97 87 72 89 109 116 116 117 115 113 114 114 110 109 109 110 111 114 118 119 120 122 122 121 121 121 122 121
125 99 95 128 135 158 139 108 108 120 110 120 114 131 170 179 134 110 95 92 96 87 71 63 62 72 84 108 120 119 115 113 114 113 113 110 109 112 114 119 120 123 124 126 124 121 121 121 120
104 79 151 185 166 160 139 116 117 84 109 110 101 140 149 136 128 115 104 93 107 138 59 58 71 74 85 105 120 118 118 114 108 110 112 102 91 95 107 121 125 122 123 124 122 118 115 113 117
97 126 208 193 165 146 139 127 135 105 107 87 79 90 117 131 140 144 153 161 180 195 202 189 152 146 147 132 104 96 98 96 92 93 98 97 95 95 107 118 122 123 122 118 115 110 105 97 99
134 166 183 144 141 130 127 122 117 129 160 182 153 141 141 144 150 160 171 178 193 200 204 204 197 181 162 121 116 100 95 93 90 92 102 102 93 85 81 78 88 94 97 91 90 85 85 93 97
126 122 125 127 127 123 133 127 118 160 197 162 150 146 148 154 165 175 178 182 182 185 211 210 192 183 185 163 133 117 112 113 121 118 116 114 102 89 88 85 86 91 99 94 91 89 83 82 93
99 85 83 106 105 112 109 111 130 146 121 126 134 139 151 161 167 173 174 171 172 190 211 205 187 191 182 153 153 134 144 183 191 171 159 152 146 142 121 113 112 114 119 115 108 97 83 69 77
117 93 86 93 100 107 111 96 100 143 128 132 141 149 160 166 166 163 165 172 181 193 202 189 185 190 171 161 161 167 189 195 189 198 198 184 175 166 150 142 139 147 151 152 138 129 96 74 83
87 81 62 76 104 124 111 81 184 157 139 144 154 160 164 169 167 174 181 182 184 185 185 182 183 165 157 164 176 170 173 160 159 198 201 185 179 171 162 154 169 181 160 141 126 115 110 112 106
66 77 102 241 137 139 127 197 209 152 149 158 166 168 171 182 187 187 180 178 174 165 165 181 177 154 158 158 153 141 140 145 153 151 165 173 178 172 161 160 185 175 146 137 133 123 111 105 103
46 136 194 223 182 153 151 206 195 161 159 169 176 178 179 189 200 197 183 177 172 167 161 161 156 150 157 149 119 104 104 113 118 101 152 168 168 168 164 171 177 157 142 145 154 127 133 132 121
205 193 201 205 195 148 169 216 184 173 172 181 184 185 186 197 210 200 186 174 168 164 157 157 151 147 139 122 97 72 63 55 52 51 191 173 171 168 163 165 164 151 143 137 134 124 116 136 135
165 163 191 233 172 147 183 204 193 181 181 188 193 195 197 207 206 190 184 169 159 159 158 164 163 163 146 128 130 123 154 355 17 336 268 180 179 172 161 159 155 150 160 165 149 133 121 112 116
143 145 187 3 118 144 166 232 201 187 195 198 197 200 202 202 193 188 182 174 171 174 176 178 182 176 172 158 146 145 138 134 147 2 25 160 169 171 168 160 163 159 163 158 148 144 133 142 139
152 174 192 168 102 68 95 342 260 227 196 202 203 201 201 201 198 193 187 186 178 184 188 192 192 187 182 163 128 106 85 61 52 23 348 332 176 178 174 168 165 164 170 179 177 171 164 173 181
231 212 170 140 118 42 95 272 287 238 216 216 213 205 207 205 196 193 189 188 192 197 188 183 184 185 178 163 160 163 166 180 205 196 239 311 182 172 174 174 173 174 176 185 197 183 175 166 178
180 96 102 109 113 74 45 137 290 287 237 233 222 214 211 204 195 195 194 194 195 192 183 179 174 185 180 170 172 169 175 184 173 149 192 297 308 186 182 178 176 179 187 194 195 181 174 173 176
117 75 59 53 70 37 244 160 279 242 232 232 218 214 207 199 193 193 188 181 186 185 181 174 174 192 184 177 177 177 181 180 173 184 205 240 260 285 175 166 171 181 186 194 194 182 179 185 183
97 93 47 15 13 251 253 178 250 256 240 220 211 208 201 190 187 185 182 184 187 186 187 180 179 196 192 185 189 188 188 183 189 198 203 201 202 226 223 175 172 183 190 187 179 174 184 188 190
162 138 155 184 211 263 313 232 253 269 271 240 204 191 182 181 186 189 191 191 192 194 192 186 187 197 193 191 195 186 182 185 195 198 196 197 205 211 198 174 168 170 172 179 174 172 188 185 197
136 153 152 132 139 146 277 281 299 288 306 261 173 166 186 190 189 192 192 190 192 194 193 190 189 196 194 194 187 179 177 183 190 190 183 184 195 190 169 155 146 153 166 175 163 166 182 173 191
134 139 108 122 145 213 280 272 251 255 245 230 202 197 199 187 187 193 194 192 192 193 191 187 189 197 195 191 194 189 178 185 187 180 181 184 187 171 151 145 144 140 130 138 145 161 173 162 190
107 103 110 119 149 159 218 264 229 222 220 210 213 204 192 188 187 192 195 190 183 178 179 185 190 190 188 189 188 180 177 176 173 177 188 186 180 172 166 169 164 154 146 141 139 149 143 148 152
156 160 148 152 191 171 174 257 276 221 217 205 212 200 185 174 172 175 175 169 175 181 184 187 193 193 192 185 182 184 177 170 174 182 188 180 177 177 175 172 168 174 164 156 157 167 162 167 193
Height
1490 1490 1491 1493 1497 1510 1515 1509 1504 1505 1506 1506 1506 1506 1509 1512 1515 1520 1516 1514 1514 1514 1514 1515 1515 1515 1515 1514 1514 1513 1513 1513 1513 1513 1514 1514 1515 1515 1516 1517 1518 1520 1521 1523 1524 1527 1529 1531 1533
1491 1491 1494 1494 1507 1524 1520 1509 1507 1506 1507 1507 1508 1509 1510 1512 1513 1514 1515 1515 1516 1516 1516 1517 1517 1517 1516 1516 1516 1516 1515 1515 1516 1516 1516 1517 1517 1517 1518 1520 1522 1524 1525 1525 1528 1530 1532 1534 1537
1492 1493 1495 1499 1512 1521 1517 1509 1507 1507 1508 1508 1510 1511 1513 1515 1515 1516 1517 1517 1517 1518 1518 1519 1519 1519 1518 1518 1518 1517 1518 1518 1518 1519 1519 1520 1521 1521 1522 1523 1525 1527 1528 1530 1532 1534 1536 1538 1540
1494 1495 1497 1506 1514 1511 1509 1508 1507 1508 1509 1510 1511 1514 1516 1518 1518 1518 1518 1519 1519 1520 1520 1521 1521 1520 1520 1520 1520 1519 1520 1520 1521 1521 1522 1523 1524 1525 1526 1527 1528 1530 1532 1534 1535 1537 1539 1541 1543
1494 1496 1506 1515 1513 1508 1507 1508 1508 1509 1511 1512 1513 1516 1519 1520 1520 1520 1520 1521 1522 1522 1523 1523 1523 1522 1522 1522 1522 1522 1522 1523 1523 1524 1525 1526 1527 1528 1529 1530 1531 1533 1535 1537 1538 1540 1542 1544 1545
1496 1498 1516 1522 1515 1510 1509 1510 1510 1511 1513 1514 1515 1518 1521 1522 1522 1522 1523 1523 1524 1525 1525 1525 1525 1525 1525 1524 1524 1524 1525 1525 1526 1527 1528 1529 1530 1531 1532 1533 1535 1536 1538 1539 1541 1543 1545 1546 1548
1498 1504 1515 1516 1516 1513 1511 1511 1512 1513 1514 1516 1517 1519 1522 1523 1524 1525 1525 1526 1526 1527 1527 1527 1527 1527 1527 1527 1527 1527 1528 1528 1529 1530 1531 1532 1533 1534 1535 1537 1538 1539 1541 1542 1544 1546 1547 1549 1550
1497 1504 1513 1516 1516 1514 1511 1512 1513 1514 1516 1518 1518 1520 1522 1524 1525 1526 1527 1528 1528 1529 1529 1529 1529 1529 1530 1529 1530 1530 1531 1531 1532 1533 1534 1535 1536 1537 1539 1540 1541 1542 1544 1545 1547 1548 1550 1551 1552
1498 1509 1517 1514 1513 1512 1511 1513 1515 1516 1517 1518 1519 1520 1522 1524 1526 1527 1528 1529 1530 1531 1531 1531 1531 1532 1532 1532 1532 1533 1534 1535 1535 1536 1537 1538 1539 1540 1541 1542 1544 1545 1546 1547 1549 1550 1552 1553 1554
1498 1511 1509 1504 1505 1508 1510 1512 1515 1517 1518 1520 1520 1522 1523 1525 1527 1528 1529 1530 1531 1532 1533 1533 1533 1534 1534 1534 1535 1536 1537 1537 1538 1539 1540 1541 1542 1543 1544 1545 1546 1547 1548 1549 1551 1552 1554 1555 1556
1497 1503 1501 1502 1503 1506 1510 1513 1515 1516 1519 1519 1520 1522 1524 1526 1528 1530 1531 1532 1533 1534 1534 1535 1535 1536 1536 1536 1537 1538 1539 1540 1540 1541 1542 1543 1544 1545 1546 1547 1548 1549 1550 1551 1553 1554 1555 1556 1557
1498 1499 1500 1502 1505 1507 1510 1513 1515 1516 1517 1518 1520 1522 1525 1527 1529 1531 1532 1533 1534 1535 1536 1536 1537 1537 1538 1538 1539 1539 1540 1542 1542 1543 1544 1545 1546 1547 1548 1549 1550 1551 1552 1553 1555 1555 1557 1557 1558
1498 1500 1502 1504 1506 1509 1511 1513 1515 1517 1518 1519 1522 1525 1526 1528 1530 1532 1533 1535 1535 1536 1537 1537 1538 1539 1539 1540 1540 1541 1542 1543 1544 1545 1546 1547 1548 1549 1549 1551 1552 1553 1554 1555 1556 1557 1558 1558 1559
1499 1501 1504 1507 1508 1511 1513 1515 1516 1518 1519 1521 1524 1526 1528 1529 1531 1532 1534 1535 1535 1536 1537 1538 1539 1540 1540 1541 1542 1542 1543 1544 1545 1546 1547 1548 1549 1550 1551 1552 1553 1554 1555 1556 1557 1558 1558 1559 1560
1500 1504 1508 1509 1510 1512 1514 1519 1517 1518 1520 1523 1525 1527 1529 1530 1531 1532 1534 1535 1536 1537 1538 1538 1539 1540 1541 1542 1543 1543 1544 1545 1546 1547 1548 1549 1550 1551 1552 1553 1554 1555 1555 1556 1557 1558 1559 1559 1560
1504 1512 1518 1512 1511 1512 1518 1525 1517 1518 1520 1523 1525 1527 1529 1531 1532 1533 1534 1535 1536 1537 1538 1539 1540 1540 1541 1542 1543 1544 1545 1546 1547 1548 1548 1549 1550 1551 1552 1553 1554 1555 1556 1556 1557 1558 1559 1559 1560
1514 1521 1521 1515 1510 1512 1516 1521 1516 1518 1520 1523 1525 1527 1528 1530 1532 1533 1534 1535 1536 1537 1538 1539 1540 1540 1541 1542 1543 1544 1545 1546 1547 1548 1549 1550 1551 1551 1552 1553 1554 1555 1555 1556 1557 1558 1558 1559 1559
1520 1520 1518 1517 1511 1512 1516 1517 1515 1517 1519 1522 1524 1526 1528 1529 1531 1532 1534 1535 1536 1537 1538 1539 1540 1540 1541 1542 1543 1544 1545 1546 1547 1548 1549 1550 1550 1551 1552 1553 1553 1554 1555 1556 1556 1557 1558 1558 1559
1507 1513 1516 1513 1508 1512 1516 1517 1516 1516 1518 1520 1522 1524 1526 1527 1530 1532 1533 1534 1536 1537 1537 1538 1539 1540 1541 1542 1543 1544 1545 1546 1547 1547 1548 1549 1550 1551 1552 1552 1553 1554 1554 1555 1556 1556 1557 1557 1558
1505 1513 1515 1511 1508 1512 1517 1517 1514 1515 1516 1517 1519 1521 1523 1525 1528 1530 1532 1533 1534 1536 1537 1538 1539 1540 1541 1542 1543 1544 1545 1545 1546 1547 1548 1549 1550 1551 1551 1552 1553 1553 1554 1555 1555 1556 1556 1557 1557
1506 1511 1512 1513 1511 1512 1517 1522 1517 1514 1515 1516 1518 1519 1521 1523 1525 1527 1530 1531 1533 1535 1536 1537 1538 1539 1540 1541 1542 1543 1544 1545 1546 1547 1548 1549 1549 1550 1551 1552 1552 1553 1553 1554 1554 1555 1555 1556 1556
1509 1501 1503 1509 1519 1528 1523 1539 1522 1516 1515 1514 1515 1516 1517 1520 1523 1525 1527 1530 1532 1533 1535 1536 1537 1538 1539 1540 1541 1542 1543 1544 1545 1546 1547 1548 1549 1550 1550 1551 1551 1552 1552 1553 1553 1553 1554 1554 1555
1500 1498 1504 1511 1520 1530 1528 1536 1529 1518 1517 1513 1511 1512 1513 1516 1519 1522 1525 1527 1530 1532 1534 1535 1536 1537 1539 1540 1541 1542 1543 1544 1545 1546 1547 1548 1549 1549 1550 1550 1550 1551 1551 1551 1552 1552 1552 1553 1554
1496 1504 1511 1520 1528 1541 1532 1537 1534 1521 1513 1507 1506 1508 1510 1513 1516 1519 1523 1526 1528 1530 1532 1534 1535 1536 1538 1539 1540 1541 1542 1543 1544 1545 1546 1547 1548 1548 1549 1549 1549 1550 1550 1550 1550 1550 1551 1551 1552
1499 1517 1538 1542 1550 1546 1532 1534 1529 1508 1503 1502 1502 1504 1506 1510 1513 1516 1519 1522 1525 1528 1530 1532 1533 1535 1536 1538 1539 1540 1541 1542 1543 1544 1545 1546 1547 1547 1548 1548 1548 1548 1548 1548 1548 1549 1549 1550 1550
1501 1511 1536 1549 1552 1545 1533 1534 1517 1502 1499 1499 1500 1502 1504 1507 1510 1512 1515 1519 1522 1525 1527 1529 1531 1533 1535 1536 1537 1539 1540 1541 1542 1543 1544 1545 1546 1546 1547 1547 1547 1547 1546 1546 1546 1547 1547 1548 1548
1502 1510 1512 1532 1540 1545 1538 1527 1511 1500 1499 1498 1499 1500 1502 1504 1507 1510 1513 1516 1519 1522 1525 1527 1529 1531 1533 1535 1536 1538 1539 1540 1541 1542 1543 1544 1544 1545 1545 1545 1545 1545 1545 1545 1545 1545 1545 1546 1546
1492 1503 1519 1532 1546 1548 1537 1530 1521 1505 1500 1498 1498 1498 1500 1502 1505 1508 1511 1514 1517 1520 1523 1525 1528 1530 1531 1533 1535 1536 1537 1539 1540 1541 1542 1543 1543 1544 1544 1544 1544 1544 1544 1544 1544 1544 1544 1544 1545
1499 1506 1515 1527 1530 1543 1545 1531 1501 1498 1495 1496 1496 1496 1497 1500 1502 1505 1508 1511 1515 1518 1521 1523 1525 1528 1530 1532 1534 1535 1536 1538 1539 1540 1540 1541 1542 1543 1543 1543 1543 1543 1543 1543 1543 1543 1543 1543 1543
1488 1498 1509 1521 1529 1533 1536 1526 1492 1492 1491 1493 1494 1495 1497 1498 1501 1504 1507 1510 1513 1515 1518 1520 1523 1525 1527 1530 1532 1533 1535 1536 1537 1538 1539 1540 1541 1541 1542 1542 1542 1542 1542 1541 1541 1541 1541 1541 1541